Tracking 34408 objects as of 14-Jun-2026
HD Live streaming from Space Station
objects crossing your sky now

NAVSTAR 75 (USA 265)

Track NAVSTAR 75 (USA 265) now!
NAVSTAR 75 (USA 265) is classified as:


NORAD ID: 41019
Int'l Code: 2015-062A
Perigee: 19,892.0 km
Apogee: 20,486.1 km
Inclination: 57.0 °
Period: 718.0 minutes
Semi major axis: 26560 km
RCS: Unknown
Launch date: October 31, 2015
Source: United States (US)
Launch site: AIR FORCE EASTERN TEST RANGE (AFETR)
PRN: 10

NAVSTAR 75 (USA 265), also known as GPS IIF-11 is a navigation satellite deployed in Plane E of the GPS constellation.
Your satellite tracking list
Your tracking list is empty




NASA's NSSDC Master Catalog

Two Line Element Set (TLE):
1 41019U 15062A   26164.78711558 -.00000062  00000-0  00000+0 0  9998
2 41019  56.9570  30.9422 0111831 231.0904 127.9640  2.00566893 77768
Source of the keplerian elements: AFSPC